User: anonymous   Login
Location: Forli
(44.2227°N, 12.0407°E)
Time: 13:51:40
(UTC+01:00)
Language:

ARIANE 6 FM1 Upper Stage - Orbit

View from above orbital plane
View from above orbital plane
View from above satellite
View from above satellite

Ground track
Ground track

The orbit is defined by the following mean orbital elements,

1 60235U          26067.97489733 +.00000000 +00000-0 +37543-3 0 00005
2 60235  61.9933 219.6890 0060540 112.4958 248.2557 15.00638592    01
Epoch (UTC): 08 March 2026 23:23:51
Eccentricity: 0.0060540
inclination: 61.9933°
perigee height: 523 km
apogee height: 607 km
right ascension of ascending node: 219.6890°
argument of perigee: 112.4958°
revolutions per day: 15.00638592
mean anomaly at epoch: 248.2557°

The dashed part of the orbit path shows where the satellite is in the earth's shadow,  

DLR